Location: Colle Santa Colomba
(42.0333°N, 12.5667°E)
Time: 03:09:17
(UTC+00:00)

IRS-1C Rocket - Pass Details

Date: 25 October 2021
Orbit: 801 x 805 km, 98.9° (Epoch: 05 December)

Event Time Altitude Azimuth Distance (km) Brightness Sun altitude
Exits shadow 18:19:35 25° 166° (SSE) 1,566 5.4 -24.1°
Maximum altitude 18:22:44 88° 256° (WSW) 810 4.0 -24.7°
Drops below altitude 10° 18:28:02 10° 346° (NNW) 2,391 6.8 -25.7°
Sets 18:30:22 0° 346° (NNW) 3,326 7.6 -26.1°
